Volver al catálogo

STARLINK-34054

ActivoComunicacionesVLEO
NORAD 64141·PAYLOAD·🇺🇸 United States

Lanzado May 24, 2025 desde Cape Canaveral Space Force Station

Loading…

Próximos Pases (próximas 24 horas)

TLE

ActualizadoSource: CelesTrak SupGP

Época: Sep 14, 2026, 20:43 UTC

1 64141C 25111U   26257.86368056 -.00079899  00000+0 -28948-2 0  2573
2 64141  43.0024  89.4428 0001150 265.5027 177.0345 15.27608827    14

Sigue STARLINK-34054 en tiempo real con AllMySat

Download on the App Store